CZ-6A DEB

Satellite information

Favourite Embed

Satellite Type and Status

DEBRISIN ORBIT

Key statistics

Satellite CZ-6A DEB at a glance.

Uptime

334

Days in orbit

Revolutions

≈ 14.4

Per day

Orbit

LEO

Low Earth Orbit

Inclination

89.1

Latest

Satellite identification and parameters

Extended collection of information and parameters for CZ-6A DEB.

Object identification

Identified? True

Debris? True

Object name: CZ-6A DEB

International designator: 2024-140SS

Object number (NORAD): 61281

Object ID (CCSDS): 61281

Country: PEOPLES REPUBLIC OF CHINA (PRC)

Current information (Y/N): Y

RCS size: SMALL

Orbital parameters

Period: 100.019 minutes

Inclination: 89.0509 deg

SMA: 7137.557 km

Apoapsis: 808.746 km

Periapsis: 710.098 km

RAAN: 314.3683 deg

Eccentricy: 0.0069105

Argument of periapsis: 64.0767 deg

Mean anomaly: 296.7535 deg

Mean motion: 14.39721102 rev/day

Mean motion (dot): 0.00000796 rev/day2

B* drag term: 0.00024228 1/REarth

Two-line elements (TLE)

Creation date: July 5, 2025, 10:26 p.m.

Reference frame: TEME

Reference center: EARTH

Epoch: July 5, 2025, 8:09 p.m. UTC

TLE line 0: 0 CZ-6A DEB

TLE line 1: 1 61281U 24140SS 25186.83988759 .00000796 00000-0 24228-3 0 9991

TLE line 2: 2 61281 89.0509 314.3683 0069105 64.0767 296.7535 14.39721102 44960

Live tracking on map

Real-time ground track for satellite CZ-6A DEB.

In-orbit conjunctions

A list of the most updated potential collisions computed for object CZ-6A DEB.

Target Orbit TCA Probability of collision Miss distance Type
CZ-6A DEB SSO 2025-06-03 12:08:35 0.0001010153 624.0 (m) DEBRIS
FENGYUN 1C DEB SSO 2025-02-25 19:11:24 0.0001802888 828.0 (m) DEBRIS
COSMOS 2251 DEB LEO 2025-02-02 01:13:23 0.0001275724 454.0 (m) DEBRIS
COSMOS 1538 LEO 2025-01-10 00:37:37 0.0004023028 368.0 (m) PAYLOAD
FENGYUN 1C DEB SSO 2025-01-04 01:31:45 0.0001117301 446.0 (m) DEBRIS

Associated space launch

18 Low Earth Orbit communication satellites with Ku, Q and V band payloads for the G60 constellation operated by Shanghai Spacecom Satellite Technology (SSST) with funding backed by the Shanghai local government. Initial constellation will consist of 1296 satellites by 2027 with long term plans to expand it to 12000 satellites.

CZ-6A DEB was lifted into orbit during the mission ‘Long March 6A | G60 Polar Group 01’, on board a Long March 6A space rocket.

The launch took place on Aug. 6, 2024, 6:42 a.m. from Launch Complex 9A.

For more information about the launch, click the button.

Launch to space Long March 6A | G60 Polar Group 01
Long March 6A | G60 Polar Group 01

Agency: N/A

Status: Launch Successful

Launch date: Aug. 6, 2024, 6:42 a.m. UTC

Rocket: Long March 6A

Launch pad: Launch Complex 9A

Location: Taiyuan Satellite Launch Center, People's Republic of China

...

Latest news about this satellite

News about space launch
Brightness of first Chinese broadband constellation satellites alarms astronomers

The first satellites of a Chinese broadband constellation are significantly brighter than those of Western systems, posing a new challenge for astronomers.

News about space launch
Chinese rocket stage breaks up into cloud of more than 700 pieces of space debris

HELSINKI — A Chinese Long March 6A rocket’s upper stage has fragmented into a cloud of over 700 pieces of space debris, adding to concerns about long-term orbital safety. China […]

News about space launch
China's Thousand Sails Megaconstellation Kicks Off with Dangerous Debris Field

China's Thousand Sails Megaconstellation Kicks Off with Dangerous Debris Field


Newsletter sign-up

Weekly statistics, charts and insights to help you stay on top of the space industry.